{"data":{"norad_id":52640,"intl_designator":"2022-052AU","name":"STARLINK-3977","alt_names":[],"object_type":"PAYLOAD","status":"ACTIVE","operator":null,"country":"US","launch_date":"2022-05-14","launch_site_code":"AFETR","launch_vehicle":null,"mission":null,"orbit_class":"UNKNOWN","rcs_meters":null,"size_class":null,"mass_kg":null,"dimensions":null,"purposes":["comms"],"wikipedia_slug":null,"has_3d_model":false,"image_url":null,"decayed_at":null,"tle_current":{"epoch":"2026-05-25T01:23:50.258112Z","epoch_age_seconds":76915,"freshness":"FRESH","line1":"1 52640U 22052AU  26145.05822058  .00004260  00000+0  28579-3 0  9991","line2":"2 52640  53.2140 276.3129 0002026  88.0323 272.0901 15.08814511222650","mean_motion":15.08814511,"eccentricity":0.0002026,"inclination_deg":53.214,"raan_deg":276.3129,"arg_perigee_deg":88.0323,"mean_anomaly_deg":272.0901,"bstar":0.00028579,"rev_number":22265,"period_min":95.439166942105,"perigee_km":538.41972138534,"apogee_km":541.2228780884,"semimajor_km":6917.9582997369,"source":"CELESTRAK","updated_at":"2026-05-25T13:38:17.206231Z"}}}